SNKJ6 RPMC-RPSP

Flight info

Callsign SNKJ6
Flight time N/A
Altitude 22000
Route COT W21 FORTA FORTA1P
Aircraft A320/M-SDFGJ1IYRW/LB1

Departure

Time 2026-04-30 14:19
Airport Cotabato (Awang) Airport (RPMC)

Arrival

Time N/A
Airport Bohol-Panglao International Airport (RPSP)
Time Latitude Longitude Altitude Speed Heading
2026-04-30 14:19 7.18797 124.17579 2273 ft 175 kts 359°
2026-04-30 14:19 7.20095 124.17576 2553 ft 199 kts 356°
2026-04-30 14:20 7.21567 124.17502 2891 ft 224 kts 355°
2026-04-30 14:20 7.23208 124.17400 3351 ft 249 kts 355°
2026-04-30 14:20 7.26799 124.16954 4949 ft 266 kts 349°
2026-04-30 14:21 7.28629 124.16603 5880 ft 270 kts 348°
2026-04-30 14:21 7.30484 124.16227 6784 ft 273 kts 347°
2026-04-30 14:21 7.34264 124.15458 8556 ft 281 kts 348°
2026-04-30 14:22 7.36190 124.15071 9416 ft 285 kts 348°
2026-04-30 14:22 7.40197 124.14277 10602 ft 312 kts 348°
2026-04-30 14:22 7.42412 124.13843 10868 ft 335 kts 348°
2026-04-30 14:23 7.47123 124.12917 12159 ft 351 kts 348°
2026-04-30 14:23 7.51935 124.11973 13601 ft 358 kts 348°
2026-04-30 14:24 7.56883 124.11003 14972 ft 366 kts 348°
2026-04-30 14:24 7.59427 124.10502 15637 ft 370 kts 348°
2026-04-30 14:25 7.64499 124.09500 16899 ft 377 kts 348°
2026-04-30 14:25 7.69704 124.08478 18109 ft 385 kts 348°
2026-04-30 14:26 7.75026 124.07433 19247 ft 393 kts 348°
2026-04-30 14:26 7.77724 124.06902 19806 ft 398 kts 348°
2026-04-30 14:26 7.83209 124.05818 20938 ft 405 kts 348°
2026-04-30 14:27 7.85986 124.05270 21427 ft 409 kts 348°
2026-04-30 14:27 7.88790 124.04717 21870 ft 413 kts 348°
2026-04-30 14:27 7.91618 124.04158 21993 ft 416 kts 348°
2026-04-30 14:28 7.97377 124.03021 22009 ft 423 kts 348°
2026-04-30 14:28 8.00262 124.02454 22009 ft 423 kts 348°
2026-04-30 14:28 8.03148 124.01888 22009 ft 422 kts 348°
2026-04-30 14:28 8.06033 124.01322 22009 ft 422 kts 348°
2026-04-30 14:29 8.11782 124.00193 22009 ft 420 kts 348°
2026-04-30 14:29 8.16543 123.99251 22009 ft 419 kts 348°
2026-04-30 14:30 8.26086 123.97366 22016 ft 418 kts 348°
2026-04-30 14:31 8.30837 123.96429 22017 ft 418 kts 348°
2026-04-30 14:31 8.37475 123.95120 21744 ft 409 kts 348°
2026-04-30 14:31 8.39324 123.94756 21579 ft 407 kts 348°
2026-04-30 14:32 8.44854 123.93670 21083 ft 403 kts 348°
2026-04-30 14:32 8.47604 123.93126 20828 ft 401 kts 348°
2026-04-30 14:32 8.50336 123.92580 20584 ft 400 kts 348°
2026-04-30 14:33 8.53058 123.92038 20328 ft 398 kts 348°
2026-04-30 14:33 8.58431 123.90973 19558 ft 389 kts 348°
2026-04-30 14:33 8.61075 123.90451 19075 ft 385 kts 348°
2026-04-30 14:34 8.63694 123.89936 18590 ft 381 kts 348°
2026-04-30 14:34 8.66285 123.89428 18092 ft 378 kts 348°
2026-04-30 14:34 8.68862 123.88921 17594 ft 375 kts 348°
2026-04-30 14:34 8.71420 123.88417 17084 ft 373 kts 348°
2026-04-30 14:35 8.76480 123.87416 16060 ft 368 kts 348°
2026-04-30 14:35 8.78987 123.86921 15541 ft 367 kts 348°
2026-04-30 14:35 8.81487 123.86427 15018 ft 365 kts 348°
2026-04-30 14:36 8.83969 123.85936 14486 ft 363 kts 348°
2026-04-30 14:36 8.86438 123.85446 13968 ft 361 kts 348°
2026-04-30 14:36 8.88872 123.84964 13436 ft 359 kts 348°
2026-04-30 14:36 8.91315 123.84481 12912 ft 357 kts 348°
2026-04-30 14:37 8.93742 123.83999 12440 ft 353 kts 348°
2026-04-30 14:37 8.96138 123.83523 11922 ft 350 kts 348°
2026-04-30 14:37 8.98523 123.83049 11377 ft 348 kts 348°
2026-04-30 14:37 9.00894 123.82578 10832 ft 346 kts 348°
2026-04-30 14:38 9.03218 123.82118 10644 ft 333 kts 348°
2026-04-30 14:38 9.05439 123.81678 10521 ft 319 kts 348°
2026-04-30 14:38 9.07575 123.81255 10394 ft 306 kts 348°
2026-04-30 14:38 9.09626 123.80849 10248 ft 296 kts 348°
2026-04-30 14:39 9.11627 123.80452 10010 ft 289 kts 348°
2026-04-30 14:39 9.13600 123.80059 9878 ft 288 kts 348°
2026-04-30 14:39 9.15564 123.79667 9613 ft 288 kts 348°
2026-04-30 14:40 9.19447 123.78895 8869 ft 284 kts 348°
2026-04-30 14:40 9.21384 123.78511 8489 ft 283 kts 348°
2026-04-30 14:40 9.23315 123.78130 8099 ft 281 kts 348°
2026-04-30 14:40 9.25226 123.77754 7723 ft 279 kts 348°
2026-04-30 14:41 9.27096 123.77385 7348 ft 267 kts 348°
2026-04-30 14:41 9.28870 123.77035 6990 ft 254 kts 348°
2026-04-30 14:41 9.30561 123.76699 6664 ft 242 kts 348°
2026-04-30 14:41 9.32206 123.76371 6335 ft 240 kts 348°
2026-04-30 14:42 9.33806 123.75951 6005 ft 236 kts 336°
2026-04-30 14:42 9.35226 123.75149 5677 ft 233 kts 321°
2026-04-30 14:42 9.36377 123.74010 5349 ft 231 kts 307°
2026-04-30 14:42 9.37229 123.72646 5020 ft 229 kts 300°
2026-04-30 14:43 9.38041 123.71254 4675 ft 229 kts 300°
2026-04-30 14:43 9.38858 123.69865 4343 ft 229 kts 300°
2026-04-30 14:43 9.39796 123.68575 3999 ft 229 kts 321°
2026-04-30 14:43 9.41210 123.67986 3674 ft 222 kts 356°
2026-04-30 14:44 9.42684 123.68342 3250 ft 219 kts 25°
2026-04-30 14:44 9.43992 123.69070 2940 ft 207 kts 30°
2026-04-30 14:44 9.45184 123.69789 2681 ft 193 kts 30°
2026-04-30 14:44 9.46307 123.70458 2405 ft 180 kts 29°
2026-04-30 14:45 9.47344 123.71071 2175 ft 166 kts 29°
2026-04-30 14:45 9.48296 123.71641 1991 ft 151 kts 29°
2026-04-30 14:45 9.49184 123.72170 1782 ft 146 kts 28°
2026-04-30 14:45 9.50051 123.72682 1588 ft 143 kts 29°
2026-04-30 14:46 9.50905 123.73192 1402 ft 142 kts 29°
2026-04-30 14:46 9.51753 123.73698 1161 ft 142 kts 29°
2026-04-30 14:46 9.52597 123.74216 858 ft 141 kts 30°
2026-04-30 14:46 9.53438 123.74720 592 ft 139 kts 30°
2026-04-30 14:47 9.54268 123.75222 429 ft 139 kts 30°
2026-04-30 14:47 9.55099 123.75724 293 ft 139 kts 28°
2026-04-30 14:47 9.55931 123.76210 156 ft 138 kts 30°
2026-04-30 14:47 9.56760 123.76690 54 ft 132 kts 30°
2026-04-30 14:48 9.57363 123.77050 52 ft 59 kts 30°